Regional Weather Roundup
Issued by NWS

Home | Current Version | Previous Version | Text Only | Print | Product List | Glossary Off
Versions: 1 2 3 4 5 6 7 8 9 10 11 12 13 14 15 16 17 18 19 20 21 22 23 24 25 26 27 28 29 30 31 32 33 34 35 36 37 38 39 40 41 42 43 44 45 46 47 48 49 50

000
ASUS43 KIND 231559
RWRIN

WEATHER ROUNDUP FOR INDIANA
NATIONAL WEATHER SERVICE INDIANAPOLIS IN
1200 PM EDT SAT MAY 23 2015

NOTE: "FAIR" INDICATES FEW OR NO CLOUDS BELOW 12,000 FEET WITH NO
SIGNIFICANT WEATHER AND/OR OBSTRUCTIONS TO VISIBILITY.

* - STATION DOES NOT REPORT WEATHER SUCH AS PRECIPITATION OR FOG.

+ - STATION NOT QUALITY CONTROLLED BY THE NATIONAL WEATHER SERVICE.
    USE DATA WITH CAUTION...ESPECIALLY DEWPOINT AND RELATIVE
    HUMIDITY OBSERVATIONS.

INZ001>003-010>013-019-020-231700-
NORTHWEST INDIANA

CITY           SKY/WX    TMP DP  RH WIND       PRES   REMARKS
GARY /AIRPORT/ MOSUNNY   73  41  31 S9        30.34F
RENSSELAER +   SUNNY     73  45  35 S8        30.34F

$$

LMZ046-743>745-231700-
SOUTHERN LAKE MICHIGAN

STATION/POSITION TIME  TEMP    WIND        PRES    WAVE
                       AIR SEA DIR/SP/G            HT
                 (UTC) (F)     (DEG/KT/KT) (MB)    (FT)
BURNS HARBOR     1500   72     170/  7/ 11 1027.8F
MICHIGAN CITY    1500   67     140/  9/ 11   N/A
5NW MICH CITY    1500   62 52  170/  4/  8   N/A     1

$$

INZ004-005-014>016-021>024-231700-
NORTH CENTRAL INDIANA

CITY           SKY/WX    TMP DP  RH WIND       PRES   REMARKS
ELKHART        SUNNY     72  37  28 S5        30.37
GOSHEN         SUNNY     71  43  36 S10       30.37F
SOUTH BEND     SUNNY     72  34  24 S7        30.37F

$$

INZ006>009-017-018-025>027-231700-
NORTHEAST INDIANA

CITY           SKY/WX    TMP DP  RH WIND       PRES   REMARKS
ANGOLA *+      SUNNY     70  61  73 CALM      30.38F
FORT WAYNE     MOSUNNY   72  40  31 CALM      30.38F

$$

INZ028-029-035-036-043>045-051>053-231700-
WEST CENTRAL INDIANA

CITY           SKY/WX    TMP DP  RH WIND       PRES   REMARKS
CRAWFORDSVL +  SUNNY     73  37  27 S7        30.36S
GREENCASTLE +  MOSUNNY   72  45  37 SW3       30.36F
LAFAYETTE      SUNNY     74  48  39 SW8       30.34F
TERRE HAUTE    MOSUNNY   74  52  46 S7        30.36F

$$

INZ030>032-037>040-046>048-054>057-064-065-231700-
CENTRAL INDIANA

CITY           SKY/WX    TMP DP  RH WIND       PRES   REMARKS
ANDERSON       SUNNY     73  39  29 S8        30.39
GREENWOOD *+   MOSUNNY   73  43  33 S5        30.38F
INDIANAPOLIS   MOSUNNY   74  47  38 VRB6      30.35F
-EAGLE CREEK   SUNNY     73  48  41 S7        30.36F
KOKOMO *+      SUNNY     75  48  38 SW9       30.36F
MT COMFORT *+  SUNNY     75  28  17 SW8       30.38S
SHELBYVILLE    MOSUNNY   76  49  38 S10       30.37F

$$

INZ033-034-041-042-049-050-058-059-231700-
EAST CENTRAL INDIANA

CITY           SKY/WX    TMP DP  RH WIND       PRES   REMARKS
MUNCIE         SUNNY     74  46  36 S10       30.37F

$$

INZ060-061-067>069-081>083-085>088-231700-
SOUTHWEST INDIANA

CITY           SKY/WX    TMP DP  RH WIND       PRES   REMARKS
EVANSVILLE     MOSUNNY   73  53  49 SE6       30.37R
HUNTINGBURG *+ MOSUNNY   73  52  46 SE7       30.37S

$$

INZ062-063-066-070>080-084-089>092-231700-
SOUTH CENTRAL AND SOUTHEAST INDIANA

CITY           SKY/WX    TMP DP  RH WIND       PRES   REMARKS
BLOOMINGTON    MOSUNNY   73  51  46 SW10      30.37F
MADISON *+     MOSUNNY   72  46  40 S5        30.41F
SEYMOUR +      MOSUNNY   77  50  38 SE5       30.38F

$$



USA.gov is the U.S. government's official web portal to all federal, state and local government web resources and services.